Weather in Krivodanovka

Russia / Novosibirsk Oblast     55°04′54″N   82°39′42″E
temp.,
°C
wind,
m/s
gust,
m/s
humid.,
%
clouds,
%
prec.,
mm/h
press.,
hPa
HPBL,
m
25 february, thu
thu2501:00−17wsw81875100 3.4 1012658
04:00−22sw45890 0.0 101479
07:00−23sw5119231 0.0 1016252
10:00−24ssw511910 0.0 1018305
13:00−20ssw7108325 0.0 10181025
16:00−19sw81385100 0.1 10191536
19:00−20sw51195100 0.1 1020840
22:00−22ssw4993100 0.1 1021217
26 february, fri
fri2601:00−21sw51194100 0.1 1021627
04:00−22sw51194100 0.1 1022587
07:00−22sw61192100 0.1 1025776
10:00−24sw71291100 0.1 1027665
13:00−23wsw71187100 0.1 1030957
16:00−24wsw71087100 0.0 1032781
19:00−27sw4892100 0.1 1034186
22:00−30sw499382 0.0 1036174
27 february, sat
sat2701:00−30sw379591 0.0 1036170
04:00−30ssw3795100 0.0 1037146
07:00−28ssw4896100 0.0 1037266
10:00−26sw4893100 0.1 1037396
13:00−24sw4692100 0.1 1038477
16:00−23sw4791100 0.0 1037513
19:00−26ssw339598 0.0 103733
22:00−28ssw349548 0.0 103834
28 february, sun
sun2801:00−30s339431 0.0 103827
04:00−30s349637 0.0 103832
07:00−29sse349656 0.0 103760
10:00−26sse599356 0.0 1036198
13:00−20sse599072 0.0 1033342
16:00−14sse61086100 0.0 1030522
19:00−11sse51287100 0.0 1027568
22:00−10s71394100 0.7 1023752
1 march, mon
mon101:00−9s71494100 2.4 1020812
04:00−8s71394100 1.6 1016694
07:00−6s71395100 3.4 1014681
10:00−4ssw71395100 1.6 1012866
13:00−1sw101694100 2.8 1011882
16:000sw91494100 0.3 10101050
19:000sw71489100 0.8 1011813
22:00−1wsw61296100 0.4 1012876